Year,Month,Day,Hour,Minute,Value (Times are PST for windspeed in km/hr)
2015,08,29,00,00,0.00
2015,08,29,00,01,0.00
2015,08,29,00,02,0.00
2015,08,29,00,03,0.00
2015,08,29,00,04,0.00
2015,08,29,00,05,0.00
2015,08,29,00,06,0.00
2015,08,29,00,07,0.00
2015,08,29,00,08,0.00
2015,08,29,00,09,0.00
2015,08,29,00,10,0.00
2015,08,29,00,11,0.00
2015,08,29,00,12,0.00
2015,08,29,00,13,0.00
2015,08,29,00,14,0.30
2015,08,29,00,15,0.00
2015,08,29,00,16,0.00
2015,08,29,00,17,0.00
2015,08,29,00,18,0.00
2015,08,29,00,19,1.00
2015,08,29,00,20,0.00
2015,08,29,00,21,0.00
2015,08,29,00,22,0.00
2015,08,29,00,23,0.00
2015,08,29,00,24,0.00
2015,08,29,00,25,0.00
2015,08,29,00,26,0.00
2015,08,29,00,27,0.00
2015,08,29,00,28,0.00
2015,08,29,00,29,0.00
2015,08,29,00,30,0.00
2015,08,29,00,31,0.00
2015,08,29,00,32,0.00
2015,08,29,00,33,0.10
2015,08,29,00,34,0.00
2015,08,29,00,35,0.00
2015,08,29,00,36,0.00
2015,08,29,00,37,0.00
2015,08,29,00,38,0.00
2015,08,29,00,39,0.00
2015,08,29,00,40,0.00
2015,08,29,00,41,0.00
2015,08,29,00,42,0.00
2015,08,29,00,43,0.00
2015,08,29,00,44,0.00
2015,08,29,00,45,0.00
2015,08,29,00,46,0.00
2015,08,29,00,47,0.00
2015,08,29,00,48,0.00
2015,08,29,00,49,0.00
2015,08,29,00,50,0.00
2015,08,29,00,51,0.00
2015,08,29,00,52,0.00
2015,08,29,00,53,0.00
2015,08,29,00,54,0.00
2015,08,29,00,55,0.00
2015,08,29,00,56,0.00
2015,08,29,00,57,0.00
2015,08,29,00,58,0.00
2015,08,29,00,59,0.00
2015,08,29,01,00,0.00
2015,08,29,01,01,0.00
2015,08,29,01,02,0.00
2015,08,29,01,03,0.00
2015,08,29,01,04,0.00
2015,08,29,01,05,0.00
2015,08,29,01,06,0.00
2015,08,29,01,07,0.00
2015,08,29,01,08,0.00
2015,08,29,01,09,0.10
2015,08,29,01,10,0.00
2015,08,29,01,11,0.00
2015,08,29,01,12,0.00
2015,08,29,01,13,0.00
2015,08,29,01,14,0.00
2015,08,29,01,15,0.90
2015,08,29,01,16,0.00
2015,08,29,01,17,0.10
2015,08,29,01,18,1.00
2015,08,29,01,19,0.70
2015,08,29,01,20,0.70
2015,08,29,01,21,0.10
2015,08,29,01,22,0.00
2015,08,29,01,23,0.00
2015,08,29,01,24,0.00
2015,08,29,01,25,0.00
2015,08,29,01,26,0.00
2015,08,29,01,27,0.00
2015,08,29,01,28,0.00
2015,08,29,01,29,0.00
2015,08,29,01,30,0.00
2015,08,29,01,31,0.00
2015,08,29,01,32,0.00
2015,08,29,01,33,0.00
2015,08,29,01,34,0.00
2015,08,29,01,35,0.00
2015,08,29,01,36,0.00
2015,08,29,01,37,0.00
2015,08,29,01,38,0.00
2015,08,29,01,39,0.00
2015,08,29,01,40,0.00
2015,08,29,01,41,0.00
2015,08,29,01,42,0.00
2015,08,29,01,43,0.00
2015,08,29,01,44,0.00
2015,08,29,01,45,0.00
2015,08,29,01,46,0.00
2015,08,29,01,47,0.00
2015,08,29,01,48,0.00
2015,08,29,01,49,0.00
2015,08,29,01,50,0.00
2015,08,29,01,51,0.00
2015,08,29,01,52,0.00
2015,08,29,01,53,0.00
2015,08,29,01,54,0.00
2015,08,29,01,55,0.00
2015,08,29,01,56,0.00
2015,08,29,01,57,0.00
2015,08,29,01,58,0.00
2015,08,29,01,59,0.00
2015,08,29,02,00,0.00
2015,08,29,02,01,0.00
2015,08,29,02,02,0.10
2015,08,29,02,03,0.00
2015,08,29,02,04,0.10
2015,08,29,02,05,0.00
2015,08,29,02,06,0.10
2015,08,29,02,07,0.50
2015,08,29,02,08,0.10
2015,08,29,02,09,0.00
2015,08,29,02,10,0.00
2015,08,29,02,11,0.00
2015,08,29,02,12,0.30
2015,08,29,02,13,0.10
2015,08,29,02,14,0.00
2015,08,29,02,15,0.00
2015,08,29,02,16,0.00
2015,08,29,02,17,0.00
2015,08,29,02,18,0.00
2015,08,29,02,19,0.00
2015,08,29,02,20,0.00
2015,08,29,02,21,0.00
2015,08,29,02,22,0.00
2015,08,29,02,23,0.50
2015,08,29,02,24,1.70
2015,08,29,02,25,2.40
2015,08,29,02,26,2.20
2015,08,29,02,27,1.90
2015,08,29,02,28,0.00
2015,08,29,02,29,0.00
2015,08,29,02,30,0.70
2015,08,29,02,31,0.10
2015,08,29,02,32,0.00
2015,08,29,02,33,0.00
2015,08,29,02,34,0.00
2015,08,29,02,35,0.00
2015,08,29,02,36,0.00
2015,08,29,02,37,0.00
2015,08,29,02,38,0.00
2015,08,29,02,39,0.60
2015,08,29,02,40,1.50
2015,08,29,02,41,2.00
2015,08,29,02,42,2.90
2015,08,29,02,43,4.30
2015,08,29,02,44,3.50
2015,08,29,02,45,3.50
2015,08,29,02,46,3.90
2015,08,29,02,47,3.70
2015,08,29,02,48,4.10
2015,08,29,02,49,3.90
2015,08,29,02,50,2.20
2015,08,29,02,51,1.30
2015,08,29,02,52,1.30
2015,08,29,02,53,1.00
2015,08,29,02,54,2.90
2015,08,29,02,55,3.20
2015,08,29,02,56,2.80
2015,08,29,02,57,2.00
2015,08,29,02,58,0.00
2015,08,29,02,59,0.00
2015,08,29,03,00,0.00
2015,08,29,03,01,0.20
2015,08,29,03,02,1.40
2015,08,29,03,03,2.50
2015,08,29,03,04,0.40
2015,08,29,03,05,2.40
2015,08,29,03,06,3.10
2015,08,29,03,07,2.90
2015,08,29,03,08,1.70
2015,08,29,03,09,3.70
2015,08,29,03,10,4.80
2015,08,29,03,11,2.80
2015,08,29,03,12,0.60
2015,08,29,03,13,0.00
2015,08,29,03,14,1.60
2015,08,29,03,15,1.20
2015,08,29,03,16,0.00
2015,08,29,03,17,0.00
2015,08,29,03,18,0.00
2015,08,29,03,19,1.50
2015,08,29,03,20,0.10
2015,08,29,03,21,0.80
2015,08,29,03,22,3.40
2015,08,29,03,23,3.30
2015,08,29,03,24,0.90
2015,08,29,03,25,0.00
2015,08,29,03,26,0.00
2015,08,29,03,27,0.00
2015,08,29,03,28,0.00
2015,08,29,03,29,0.00
2015,08,29,03,30,0.00
2015,08,29,03,31,0.00
2015,08,29,03,32,0.00
2015,08,29,03,33,0.00
2015,08,29,03,34,0.00
2015,08,29,03,35,0.00
2015,08,29,03,36,2.50
2015,08,29,03,37,1.40
2015,08,29,03,38,0.00
2015,08,29,03,39,0.00
2015,08,29,03,40,0.00
2015,08,29,03,41,0.00
2015,08,29,03,42,0.00
2015,08,29,03,43,0.00
2015,08,29,03,44,0.00
2015,08,29,03,45,0.00
2015,08,29,03,46,0.00
2015,08,29,03,47,0.40
2015,08,29,03,48,0.00
2015,08,29,03,49,0.60
2015,08,29,03,50,0.30
2015,08,29,03,51,0.50
2015,08,29,03,52,1.80
2015,08,29,03,53,0.10
2015,08,29,03,54,1.70
2015,08,29,03,55,0.10
2015,08,29,03,56,0.00
2015,08,29,03,57,0.00
2015,08,29,03,58,0.00
2015,08,29,03,59,0.00
2015,08,29,04,00,0.20
2015,08,29,04,01,2.20
2015,08,29,04,02,1.10
2015,08,29,04,03,0.00
2015,08,29,04,04,0.00
2015,08,29,04,05,0.00
2015,08,29,04,06,0.00
2015,08,29,04,07,0.00
2015,08,29,04,08,0.10
2015,08,29,04,09,0.00
2015,08,29,04,10,0.00
2015,08,29,04,11,0.10
2015,08,29,04,12,0.20
2015,08,29,04,13,0.00
2015,08,29,04,14,1.10
2015,08,29,04,15,0.10
2015,08,29,04,16,0.00
2015,08,29,04,17,0.90
2015,08,29,04,18,3.10
2015,08,29,04,19,3.20
2015,08,29,04,20,2.30
2015,08,29,04,21,1.10
2015,08,29,04,22,0.00
2015,08,29,04,23,0.40
2015,08,29,04,24,0.60
2015,08,29,04,25,2.40
2015,08,29,04,26,3.30
2015,08,29,04,27,2.50
2015,08,29,04,28,0.70
2015,08,29,04,29,2.30
2015,08,29,04,30,2.00
2015,08,29,04,31,2.30
2015,08,29,04,32,0.30
2015,08,29,04,33,2.00
2015,08,29,04,34,2.30
2015,08,29,04,35,0.60
2015,08,29,04,36,0.10
2015,08,29,04,37,0.20
2015,08,29,04,38,1.70
2015,08,29,04,39,2.20
2015,08,29,04,40,1.70
2015,08,29,04,41,1.50
2015,08,29,04,42,0.60
2015,08,29,04,43,0.70
2015,08,29,04,44,1.40
2015,08,29,04,45,0.00
2015,08,29,04,46,0.00
2015,08,29,04,47,0.80
2015,08,29,04,48,1.50
2015,08,29,04,49,0.10
2015,08,29,04,50,0.00
2015,08,29,04,51,0.00
2015,08,29,04,52,0.00
2015,08,29,04,53,0.40
2015,08,29,04,54,3.00
2015,08,29,04,55,1.40
2015,08,29,04,56,0.00
2015,08,29,04,57,0.40
2015,08,29,04,58,1.70
2015,08,29,04,59,2.50
2015,08,29,05,00,1.10
2015,08,29,05,01,1.00
2015,08,29,05,02,0.10
2015,08,29,05,03,0.00
2015,08,29,05,04,0.10
2015,08,29,05,05,0.00
2015,08,29,05,06,0.00
2015,08,29,05,07,0.00
2015,08,29,05,08,0.00
2015,08,29,05,09,0.10
2015,08,29,05,10,0.00
2015,08,29,05,11,0.00
2015,08,29,05,12,0.00
2015,08,29,05,13,0.00
2015,08,29,05,14,0.00
2015,08,29,05,15,0.00
2015,08,29,05,16,0.00
2015,08,29,05,17,0.00
2015,08,29,05,18,0.00
2015,08,29,05,19,0.00
2015,08,29,05,20,0.00
2015,08,29,05,21,0.00
2015,08,29,05,22,0.00
2015,08,29,05,23,0.00
2015,08,29,05,24,0.00
2015,08,29,05,25,0.00
2015,08,29,05,26,0.00
2015,08,29,05,27,0.00
2015,08,29,05,28,0.00
2015,08,29,05,29,0.00
2015,08,29,05,30,0.00
2015,08,29,05,31,0.00
2015,08,29,05,32,0.00
2015,08,29,05,33,0.00
2015,08,29,05,34,0.00
2015,08,29,05,35,0.00
2015,08,29,05,36,0.00
2015,08,29,05,37,0.00
2015,08,29,05,38,0.00
2015,08,29,05,39,0.00
2015,08,29,05,40,0.00
2015,08,29,05,41,0.00
2015,08,29,05,42,0.00
2015,08,29,05,43,0.00
2015,08,29,05,44,1.30
2015,08,29,05,45,0.20
2015,08,29,05,46,0.10
2015,08,29,05,47,1.90
2015,08,29,05,48,4.00
2015,08,29,05,49,5.10
2015,08,29,05,50,4.30
2015,08,29,05,51,3.10
2015,08,29,05,52,4.70
2015,08,29,05,53,5.00
2015,08,29,05,54,8.40
2015,08,29,05,55,8.00
2015,08,29,05,56,10.90
2015,08,29,05,57,9.20
2015,08,29,05,58,11.30
2015,08,29,05,59,11.80
2015,08,29,06,00,12.60
2015,08,29,06,01,11.10
2015,08,29,06,02,10.60
2015,08,29,06,03,18.30
2015,08,29,06,04,16.50
2015,08,29,06,05,12.50
2015,08,29,06,06,14.30
2015,08,29,06,07,14.80
2015,08,29,06,08,10.80
2015,08,29,06,09,3.70
2015,08,29,06,10,3.60
2015,08,29,06,11,6.10
2015,08,29,06,12,4.50
2015,08,29,06,13,5.40
2015,08,29,06,14,5.60
2015,08,29,06,15,2.90
2015,08,29,06,16,3.40
2015,08,29,06,17,3.00
2015,08,29,06,18,3.40
2015,08,29,06,19,3.10
2015,08,29,06,20,4.50
2015,08,29,06,21,3.40
2015,08,29,06,22,1.40
2015,08,29,06,23,1.50
2015,08,29,06,24,1.30
2015,08,29,06,25,0.00
2015,08,29,06,26,0.50
2015,08,29,06,27,1.50
2015,08,29,06,28,0.00
2015,08,29,06,29,1.80
2015,08,29,06,30,2.80
2015,08,29,06,31,1.10
2015,08,29,06,32,0.10
2015,08,29,06,33,0.00
2015,08,29,06,34,0.00
2015,08,29,06,35,0.00
2015,08,29,06,36,0.00
2015,08,29,06,37,0.10
2015,08,29,06,38,0.00
2015,08,29,06,39,0.00
2015,08,29,06,40,0.00
2015,08,29,06,41,0.00
2015,08,29,06,42,0.00
2015,08,29,06,43,0.00
2015,08,29,06,44,0.00
2015,08,29,06,45,1.70
2015,08,29,06,46,2.70
2015,08,29,06,47,4.70
2015,08,29,06,48,3.90
2015,08,29,06,49,1.50
2015,08,29,06,50,0.80
2015,08,29,06,51,0.10
2015,08,29,06,52,0.00
2015,08,29,06,53,1.70
2015,08,29,06,54,3.60
2015,08,29,06,55,2.20
2015,08,29,06,56,1.10
2015,08,29,06,57,0.60
2015,08,29,06,58,1.20
2015,08,29,06,59,2.90
2015,08,29,07,00,2.20
2015,08,29,07,01,1.50
2015,08,29,07,02,0.60
2015,08,29,07,03,1.20
2015,08,29,07,04,0.60
2015,08,29,07,05,0.80
2015,08,29,07,06,0.50
2015,08,29,07,07,1.20
2015,08,29,07,08,1.30
2015,08,29,07,09,0.80
2015,08,29,07,10,0.90
2015,08,29,07,11,2.30
2015,08,29,07,12,0.20
2015,08,29,07,13,3.10
2015,08,29,07,14,3.10
2015,08,29,07,15,1.00
2015,08,29,07,16,2.50
2015,08,29,07,17,0.50
2015,08,29,07,18,0.00
2015,08,29,07,19,0.00
2015,08,29,07,20,0.80
2015,08,29,07,21,0.70
2015,08,29,07,22,0.00
2015,08,29,07,23,0.00
2015,08,29,07,24,1.50
2015,08,29,07,25,0.80
2015,08,29,07,26,2.20
2015,08,29,07,27,2.80
2015,08,29,07,28,0.60
2015,08,29,07,29,2.20
2015,08,29,07,30,0.10
2015,08,29,07,31,0.10
2015,08,29,07,32,5.30
2015,08,29,07,33,2.10
2015,08,29,07,34,0.00
2015,08,29,07,35,0.80
2015,08,29,07,36,3.90
2015,08,29,07,37,0.80
2015,08,29,07,38,1.30
2015,08,29,07,39,0.10
2015,08,29,07,40,0.10
2015,08,29,07,41,0.00
2015,08,29,07,42,0.00
2015,08,29,07,43,0.40
2015,08,29,07,44,2.30
2015,08,29,07,45,1.90
2015,08,29,07,46,3.10
2015,08,29,07,47,3.10
2015,08,29,07,48,3.10
2015,08,29,07,49,0.10
2015,08,29,07,50,0.00
2015,08,29,07,51,0.00
2015,08,29,07,52,3.40
2015,08,29,07,53,0.10
2015,08,29,07,54,1.50
2015,08,29,07,55,1.60
2015,08,29,07,56,0.00
2015,08,29,07,57,2.70
2015,08,29,07,58,0.10
2015,08,29,07,59,1.40
2015,08,29,08,00,2.30
2015,08,29,08,01,5.30
2015,08,29,08,02,2.40
2015,08,29,08,03,4.50
2015,08,29,08,04,2.30
2015,08,29,08,05,0.10
2015,08,29,08,06,0.00
2015,08,29,08,07,4.80
2015,08,29,08,08,5.20
2015,08,29,08,09,4.50
2015,08,29,08,10,1.90
2015,08,29,08,11,0.30
2015,08,29,08,12,1.30
2015,08,29,08,13,0.40
2015,08,29,08,14,0.50
2015,08,29,08,15,0.10
2015,08,29,08,16,0.10
2015,08,29,08,17,1.60
2015,08,29,08,18,2.20
2015,08,29,08,19,0.00
2015,08,29,08,20,0.00
2015,08,29,08,21,0.00
2015,08,29,08,22,0.00
2015,08,29,08,23,0.10
2015,08,29,08,24,1.30
2015,08,29,08,25,5.00
2015,08,29,08,26,3.80
2015,08,29,08,27,0.60
2015,08,29,08,28,0.10
2015,08,29,08,29,0.00
2015,08,29,08,30,0.00
2015,08,29,08,31,0.00
2015,08,29,08,32,1.00
2015,08,29,08,33,5.20
2015,08,29,08,34,0.80
2015,08,29,08,35,2.00
2015,08,29,08,36,3.00
2015,08,29,08,37,0.00
2015,08,29,08,38,1.40
2015,08,29,08,39,0.50
2015,08,29,08,40,0.80
2015,08,29,08,41,1.70
2015,08,29,08,42,0.30
2015,08,29,08,43,0.00
2015,08,29,08,44,0.30
2015,08,29,08,45,1.50
2015,08,29,08,46,0.00
2015,08,29,08,47,0.00
2015,08,29,08,48,0.00
2015,08,29,08,49,0.00
2015,08,29,08,50,0.00
2015,08,29,08,51,0.00
2015,08,29,08,52,0.00
2015,08,29,08,53,0.00
2015,08,29,08,54,0.70
2015,08,29,08,55,0.40
2015,08,29,08,56,0.00
2015,08,29,08,57,0.40
2015,08,29,08,58,3.60
2015,08,29,08,59,7.50
2015,08,29,09,00,6.40
2015,08,29,09,01,2.00
2015,08,29,09,02,0.00
2015,08,29,09,03,0.50
2015,08,29,09,04,0.00
2015,08,29,09,05,0.00
2015,08,29,09,06,0.80
2015,08,29,09,07,2.70
2015,08,29,09,08,0.80
2015,08,29,09,09,6.20
2015,08,29,09,10,5.70
2015,08,29,09,11,1.30
2015,08,29,09,12,6.10
2015,08,29,09,13,1.50
2015,08,29,09,14,0.50
2015,08,29,09,15,6.40
2015,08,29,09,16,5.00
2015,08,29,09,17,10.10
2015,08,29,09,18,12.70
2015,08,29,09,19,5.60
2015,08,29,09,20,2.90
2015,08,29,09,21,9.00
2015,08,29,09,22,5.00
2015,08,29,09,23,7.90
2015,08,29,09,24,15.70
2015,08,29,09,25,12.60
2015,08,29,09,26,6.70
2015,08,29,09,27,8.40
2015,08,29,09,28,11.30
2015,08,29,09,29,3.60
2015,08,29,09,30,4.50
2015,08,29,09,31,6.70
2015,08,29,09,32,5.70
2015,08,29,09,33,6.40
2015,08,29,09,34,5.00
2015,08,29,09,35,6.40
2015,08,29,09,36,5.80
2015,08,29,09,37,8.00
2015,08,29,09,38,7.40
2015,08,29,09,39,6.90
2015,08,29,09,40,9.70
2015,08,29,09,41,16.20
2015,08,29,09,42,18.10
2015,08,29,09,43,16.40
2015,08,29,09,44,10.20
2015,08,29,09,45,10.80
2015,08,29,09,46,8.70
2015,08,29,09,47,13.00
2015,08,29,09,48,11.00
2015,08,29,09,49,7.90
2015,08,29,09,50,9.60
2015,08,29,09,51,7.50
2015,08,29,09,52,12.40
2015,08,29,09,53,7.60
2015,08,29,09,54,8.70
2015,08,29,09,55,9.20
2015,08,29,09,56,9.80
2015,08,29,09,57,9.40
2015,08,29,09,58,13.50
2015,08,29,09,59,14.10
2015,08,29,10,00,10.10
2015,08,29,10,01,6.70
2015,08,29,10,02,6.00
2015,08,29,10,03,8.80
2015,08,29,10,04,15.40
2015,08,29,10,05,11.20
2015,08,29,10,06,7.40
2015,08,29,10,07,4.80
2015,08,29,10,08,8.20
2015,08,29,10,09,13.50
2015,08,29,10,10,11.00
2015,08,29,10,11,13.80
2015,08,29,10,12,16.70
2015,08,29,10,13,11.70
2015,08,29,10,14,8.50
2015,08,29,10,15,9.30
2015,08,29,10,16,8.00
2015,08,29,10,17,7.10
2015,08,29,10,18,16.00
2015,08,29,10,19,7.30
2015,08,29,10,20,1.10
2015,08,29,10,21,4.00
2015,08,29,10,22,17.30
2015,08,29,10,23,15.70
2015,08,29,10,24,14.60
2015,08,29,10,25,13.60
2015,08,29,10,26,10.00
2015,08,29,10,27,12.10
2015,08,29,10,28,9.40
2015,08,29,10,29,7.40
2015,08,29,10,30,10.30
2015,08,29,10,31,11.00
2015,08,29,10,32,10.00
2015,08,29,10,33,15.00
2015,08,29,10,34,6.70
2015,08,29,10,35,12.40
2015,08,29,10,36,12.40
2015,08,29,10,37,11.90
2015,08,29,10,38,12.10
2015,08,29,10,39,13.00
2015,08,29,10,40,7.50
2015,08,29,10,41,7.00
2015,08,29,10,42,6.20
2015,08,29,10,43,7.50
2015,08,29,10,44,9.00
2015,08,29,10,45,9.20
2015,08,29,10,46,19.80
2015,08,29,10,47,10.50
2015,08,29,10,48,13.20
2015,08,29,10,49,15.40
2015,08,29,10,50,9.90
2015,08,29,10,51,15.60
2015,08,29,10,52,9.30
2015,08,29,10,53,15.20
2015,08,29,10,54,13.40
2015,08,29,10,55,12.30
2015,08,29,10,56,19.00
2015,08,29,10,57,13.80
2015,08,29,10,58,12.90
2015,08,29,10,59,20.80
2015,08,29,11,00,18.30
2015,08,29,11,01,20.20
2015,08,29,11,02,19.50
2015,08,29,11,03,18.10
2015,08,29,11,04,16.50
2015,08,29,11,05,24.40
2015,08,29,11,06,24.70
2015,08,29,11,07,13.80
2015,08,29,11,08,26.80
2015,08,29,11,09,19.20
2015,08,29,11,10,15.40
2015,08,29,11,11,27.80
2015,08,29,11,12,20.30
2015,08,29,11,13,26.00
2015,08,29,11,14,20.00
2015,08,29,11,15,16.00
2015,08,29,11,16,19.80
2015,08,29,11,17,23.70
2015,08,29,11,18,20.40
2015,08,29,11,19,18.40
2015,08,29,11,20,26.40
2015,08,29,11,21,31.00
2015,08,29,11,22,19.10
2015,08,29,11,23,19.60
2015,08,29,11,24,27.20
2015,08,29,11,25,30.30
2015,08,29,11,26,20.00
2015,08,29,11,27,25.10
2015,08,29,11,28,22.30
2015,08,29,11,29,23.60
2015,08,29,11,30,24.80
2015,08,29,11,31,20.10
2015,08,29,11,32,19.20
2015,08,29,11,33,26.50
2015,08,29,11,34,22.50
2015,08,29,11,35,33.40
2015,08,29,11,36,25.60
2015,08,29,11,37,23.40
2015,08,29,11,38,22.70
2015,08,29,11,39,19.80
2015,08,29,11,40,22.70
2015,08,29,11,41,30.40
2015,08,29,11,42,32.80
2015,08,29,11,43,29.90
2015,08,29,11,44,23.30
2015,08,29,11,45,28.50
2015,08,29,11,46,28.10
2015,08,29,11,47,25.70
2015,08,29,11,48,24.70
2015,08,29,11,49,28.40
2015,08,29,11,50,24.00
2015,08,29,11,51,21.10
2015,08,29,11,52,20.80
2015,08,29,11,53,23.40
2015,08,29,11,54,24.00
2015,08,29,11,55,20.10
2015,08,29,11,56,24.60
2015,08,29,11,57,26.80
2015,08,29,11,58,25.40
2015,08,29,11,59,24.30
2015,08,29,12,00,21.40
2015,08,29,12,01,22.10
2015,08,29,12,02,24.30
2015,08,29,12,03,23.70
2015,08,29,12,04,22.30
2015,08,29,12,05,21.40
2015,08,29,12,06,27.80
2015,08,29,12,07,22.50
2015,08,29,12,08,27.60
2015,08,29,12,09,28.10
2015,08,29,12,10,21.80
2015,08,29,12,11,17.50
2015,08,29,12,12,20.10
2015,08,29,12,13,26.70
2015,08,29,12,14,17.40
2015,08,29,12,15,17.30
2015,08,29,12,16,23.70
2015,08,29,12,17,23.10
2015,08,29,12,18,26.80
2015,08,29,12,19,25.70
2015,08,29,12,20,15.50
2015,08,29,12,21,19.40
2015,08,29,12,22,22.50
2015,08,29,12,23,23.50
2015,08,29,12,24,19.20
2015,08,29,12,25,17.20
2015,08,29,12,26,13.50
2015,08,29,12,27,13.50
2015,08,29,12,28,10.90
2015,08,29,12,29,12.00
2015,08,29,12,30,20.60
2015,08,29,12,31,22.10
2015,08,29,12,32,13.70
2015,08,29,12,33,13.80
2015,08,29,12,34,14.20
2015,08,29,12,35,20.20
2015,08,29,12,36,15.10
2015,08,29,12,37,17.00
2015,08,29,12,38,14.70
2015,08,29,12,39,17.00
2015,08,29,12,40,14.80
2015,08,29,12,41,12.60
2015,08,29,12,42,13.90
2015,08,29,12,43,12.40
2015,08,29,12,44,19.00
2015,08,29,12,45,12.10
2015,08,29,12,46,14.30
2015,08,29,12,47,23.60
2015,08,29,12,48,19.50
2015,08,29,12,49,17.60
2015,08,29,12,50,11.90
2015,08,29,12,51,16.00
2015,08,29,12,52,11.70
2015,08,29,12,53,7.00
2015,08,29,12,54,5.90
2015,08,29,12,55,14.00
2015,08,29,12,56,8.80
2015,08,29,12,57,7.70
2015,08,29,12,58,6.10
2015,08,29,12,59,7.50
2015,08,29,13,00,14.20
2015,08,29,13,01,13.50
2015,08,29,13,02,5.90
2015,08,29,13,03,2.20
2015,08,29,13,04,9.60
2015,08,29,13,05,5.80
2015,08,29,13,06,7.50
2015,08,29,13,07,9.40
2015,08,29,13,08,9.40
2015,08,29,13,09,5.10
2015,08,29,13,10,5.30
2015,08,29,13,11,8.10
2015,08,29,13,12,11.90
2015,08,29,13,13,8.10
2015,08,29,13,14,11.00
2015,08,29,13,15,13.60
2015,08,29,13,16,12.90
2015,08,29,13,17,9.40
2015,08,29,13,18,9.90
2015,08,29,13,19,9.60
2015,08,29,13,20,10.40
2015,08,29,13,21,10.30
2015,08,29,13,22,13.20
2015,08,29,13,23,11.90
2015,08,29,13,24,10.00
2015,08,29,13,25,13.20
2015,08,29,13,26,14.30
2015,08,29,13,27,12.70
2015,08,29,13,28,5.70
2015,08,29,13,29,14.30
2015,08,29,13,30,14.10
2015,08,29,13,31,10.00
2015,08,29,13,32,14.00
2015,08,29,13,33,15.50
2015,08,29,13,34,9.00
2015,08,29,13,35,9.10
2015,08,29,13,36,13.60
2015,08,29,13,37,13.90
2015,08,29,13,38,16.80
2015,08,29,13,39,11.50
2015,08,29,13,40,15.40
2015,08,29,13,41,17.50
2015,08,29,13,42,18.40
2015,08,29,13,43,11.00
2015,08,29,13,44,14.30
2015,08,29,13,45,15.10
2015,08,29,13,46,20.00
2015,08,29,13,47,10.90
2015,08,29,13,48,15.00
2015,08,29,13,49,17.30
2015,08,29,13,50,14.50
2015,08,29,13,51,15.90
2015,08,29,13,52,11.00
2015,08,29,13,53,15.00
2015,08,29,13,54,17.10
2015,08,29,13,55,15.20
2015,08,29,13,56,9.10
2015,08,29,13,57,17.00
2015,08,29,13,58,10.30
2015,08,29,13,59,15.50
2015,08,29,14,00,26.10
2015,08,29,14,01,29.80
2015,08,29,14,02,46.40
2015,08,29,14,03,37.70
2015,08,29,14,04,23.10
2015,08,29,14,05,21.10
2015,08,29,14,06,26.20
2015,08,29,14,07,20.30
2015,08,29,14,08,27.10
2015,08,29,14,09,18.90
2015,08,29,14,10,22.10
2015,08,29,14,11,25.80
2015,08,29,14,12,18.80
2015,08,29,14,13,21.30
2015,08,29,14,14,18.10
2015,08,29,14,15,24.40
2015,08,29,14,16,25.50
2015,08,29,14,17,18.30
2015,08,29,14,18,24.80
2015,08,29,14,19,23.90
2015,08,29,14,20,14.10
2015,08,29,14,21,20.00
2015,08,29,14,22,24.60
2015,08,29,14,23,23.80
2015,08,29,14,24,19.30
2015,08,29,14,25,17.70
2015,08,29,14,26,21.80
2015,08,29,14,27,22.40
2015,08,29,14,28,18.30
2015,08,29,14,29,19.50
2015,08,29,14,30,23.30
2015,08,29,14,31,19.60
2015,08,29,14,32,20.60
2015,08,29,14,33,30.70
2015,08,29,14,34,28.80
2015,08,29,14,35,20.30
2015,08,29,14,36,20.30
2015,08,29,14,37,17.50
2015,08,29,14,38,16.00
2015,08,29,14,39,21.20
2015,08,29,14,40,19.30
2015,08,29,14,41,24.40
2015,08,29,14,42,19.00
2015,08,29,14,43,14.10
2015,08,29,14,44,22.20
2015,08,29,14,45,16.40
2015,08,29,14,46,20.30
2015,08,29,14,47,25.30
2015,08,29,14,48,30.70
2015,08,29,14,49,21.80
2015,08,29,14,50,19.20
2015,08,29,14,51,15.40
2015,08,29,14,52,19.90
2015,08,29,14,53,17.90
2015,08,29,14,54,17.10
2015,08,29,14,55,16.80
2015,08,29,14,56,15.60
2015,08,29,14,57,15.70
2015,08,29,14,58,14.30
2015,08,29,14,59,15.70
2015,08,29,15,00,16.10
2015,08,29,15,01,19.80
2015,08,29,15,02,19.20
2015,08,29,15,03,10.60
2015,08,29,15,04,13.10
2015,08,29,15,05,17.80
2015,08,29,15,06,16.10
2015,08,29,15,07,24.10
2015,08,29,15,08,28.30
2015,08,29,15,09,21.20
2015,08,29,15,10,20.50
2015,08,29,15,11,20.80
2015,08,29,15,12,19.10
2015,08,29,15,13,14.40
2015,08,29,15,14,15.40
2015,08,29,15,15,15.50
2015,08,29,15,16,12.40
2015,08,29,15,17,14.20
2015,08,29,15,18,9.20
2015,08,29,15,19,7.90
2015,08,29,15,20,17.40
2015,08,29,15,21,15.00
2015,08,29,15,22,11.60
2015,08,29,15,23,13.90
2015,08,29,15,24,18.10
2015,08,29,15,25,15.40
2015,08,29,15,26,20.00
2015,08,29,15,27,19.30
2015,08,29,15,28,15.60
2015,08,29,15,29,16.20
2015,08,29,15,30,16.00
2015,08,29,15,31,19.20
2015,08,29,15,32,17.30
2015,08,29,15,33,18.40
2015,08,29,15,34,19.70
2015,08,29,15,35,15.30
2015,08,29,15,36,23.20
2015,08,29,15,37,22.90
2015,08,29,15,38,21.70
2015,08,29,15,39,26.30
2015,08,29,15,40,22.10
2015,08,29,15,41,21.70
2015,08,29,15,42,21.90
2015,08,29,15,43,17.80
2015,08,29,15,44,20.00
2015,08,29,15,45,14.50
2015,08,29,15,46,17.50
2015,08,29,15,47,17.10
2015,08,29,15,48,21.10
2015,08,29,15,49,16.30
2015,08,29,15,50,16.80
2015,08,29,15,51,14.80
2015,08,29,15,52,14.10
2015,08,29,15,53,15.20
2015,08,29,15,54,14.30
2015,08,29,15,55,11.40
2015,08,29,15,56,17.40
2015,08,29,15,57,19.50
2015,08,29,15,58,18.10
2015,08,29,15,59,14.60
2015,08,29,16,00,15.70
2015,08,29,16,01,14.60
2015,08,29,16,02,16.30
2015,08,29,16,03,13.20
2015,08,29,16,04,12.50
2015,08,29,16,05,12.10
2015,08,29,16,06,9.90
2015,08,29,16,07,10.30
2015,08,29,16,08,10.50
2015,08,29,16,09,9.40
2015,08,29,16,10,6.30
2015,08,29,16,11,6.70
2015,08,29,16,12,8.20
2015,08,29,16,13,14.50
2015,08,29,16,14,16.00
2015,08,29,16,15,17.50
2015,08,29,16,16,14.30
2015,08,29,16,17,9.10
2015,08,29,16,18,10.60
2015,08,29,16,19,9.10
2015,08,29,16,20,6.90
2015,08,29,16,21,8.10
2015,08,29,16,22,6.50
2015,08,29,16,23,4.50
2015,08,29,16,24,11.30
2015,08,29,16,25,9.40
2015,08,29,16,26,9.20
2015,08,29,16,27,3.40
2015,08,29,16,28,5.50
2015,08,29,16,29,4.80
2015,08,29,16,30,3.10
2015,08,29,16,31,0.00
2015,08,29,16,32,0.00
2015,08,29,16,33,1.00
2015,08,29,16,34,8.00
2015,08,29,16,35,5.50
2015,08,29,16,36,4.00
2015,08,29,16,37,3.40
2015,08,29,16,38,7.10
2015,08,29,16,39,5.40
2015,08,29,16,40,5.30
2015,08,29,16,41,3.00
2015,08,29,16,42,1.00
2015,08,29,16,43,3.00
2015,08,29,16,44,0.10
2015,08,29,16,45,1.70
2015,08,29,16,46,1.90
2015,08,29,16,47,1.70
2015,08,29,16,48,0.10
2015,08,29,16,49,0.10
2015,08,29,16,50,1.30
2015,08,29,16,51,1.80
2015,08,29,16,52,0.00
2015,08,29,16,53,0.00
2015,08,29,16,54,0.00
2015,08,29,16,55,1.60
2015,08,29,16,56,0.80
2015,08,29,16,57,1.00
2015,08,29,16,58,0.80
2015,08,29,16,59,0.10
2015,08,29,17,00,1.00
2015,08,29,17,01,0.70
2015,08,29,17,02,0.00
2015,08,29,17,03,0.00
2015,08,29,17,04,0.00
2015,08,29,17,05,0.60
2015,08,29,17,06,1.10
2015,08,29,17,07,0.00
2015,08,29,17,08,0.00
2015,08,29,17,09,1.10
2015,08,29,17,10,0.00
2015,08,29,17,11,0.10
2015,08,29,17,12,0.00
2015,08,29,17,13,0.00
2015,08,29,17,14,0.00
2015,08,29,17,15,0.20
2015,08,29,17,16,1.30
2015,08,29,17,17,0.40
2015,08,29,17,18,0.80
2015,08,29,17,19,0.00
2015,08,29,17,20,0.00
2015,08,29,17,21,0.00
2015,08,29,17,22,0.00
2015,08,29,17,23,0.10
2015,08,29,17,24,0.40
2015,08,29,17,25,0.10
2015,08,29,17,26,0.30
2015,08,29,17,27,0.00
2015,08,29,17,28,0.80
2015,08,29,17,29,0.70
2015,08,29,17,30,0.00
2015,08,29,17,31,0.00
2015,08,29,17,32,0.00
2015,08,29,17,33,0.00
2015,08,29,17,34,0.00
2015,08,29,17,35,0.00
2015,08,29,17,36,0.00
2015,08,29,17,37,0.10
2015,08,29,17,38,0.10
2015,08,29,17,39,0.00
2015,08,29,17,40,1.30
2015,08,29,17,41,3.30
2015,08,29,17,42,5.70
2015,08,29,17,43,5.00
2015,08,29,17,44,3.80
2015,08,29,17,45,0.00
2015,08,29,17,46,0.00
2015,08,29,17,47,0.00
2015,08,29,17,48,0.10
2015,08,29,17,49,0.00
2015,08,29,17,50,0.00